| time (UTC) | temp C | wind direction | speed KPH | gust KPH | rain 1hr cm | rain 24hr cm | rain mn cm | humidity % | barometer mb |
| 20260507133010 | 8 | 245 | 1.6 | 6.4 | 0.00 | 0.00 | 0.00 | 62 | 1010.5 |
| 20260507132506 | 9 | 65 | 11.3 | 12.9 | 0.00 | 0.00 | 0.00 | 64 | 1010.6 |
| 20260507132002 | 8 | 70 | 9.7 | 9.7 | 0.00 | 0.00 | 0.00 | 64 | 1010.6 |
| 20260507131459 | 8 | 47 | 3.2 | 6.4 | 0.00 | 0.00 | 0.00 | 65 | 1010.7 |
| 20260507130956 | 8 | 284 | 8.0 | 8.0 | 0.00 | 0.00 | 0.00 | 65 | 1010.6 |
| 20260507130453 | 8 | 70 | 8.0 | 9.7 | 0.00 | 0.00 | 0.00 | 69 | 1010.7 |
| 20260507125952 | 8 | 290 | 3.2 | 6.4 | 0.00 | 0.00 | 0.00 | 66 | 1010.8 |
| 20260507125450 | 8 | 353 | 3.2 | 8.0 | 0.00 | 0.00 | 0.00 | 64 | 1010.5 |
| 20260507124947 | 8 | 76 | 3.2 | 6.4 | 0.00 | 0.00 | 0.00 | 67 | 1010.7 |
| 20260507124443 | 8 | 45 | 8.0 | 9.7 | 0.00 | 0.00 | 0.00 | 71 | 1010.9 |
| 20260507123941 | 7 | 76 | 3.2 | 6.4 | 0.00 | 0.00 | 0.00 | 71 | 1011.2 |
| 20260507123438 | 8 | 104 | 9.7 | 14.5 | 0.00 | 0.00 | 0.00 | 69 | 1011.1 |
| 20260507122935 | 7 | 71 | 0.0 | 4.8 | 0.00 | 0.00 | 0.00 | 78 | 1011.1 |
| 20260507122430 | 7 | 31 | 6.4 | 8.0 | 0.00 | 0.00 | 0.00 | 77 | 1011.1 |
| 20260507121926 | 7 | 31 | 3.2 | 4.8 | 0.00 | 0.00 | 0.00 | 84 | 1010.9 |
| 20260507121422 | 6 | 110 | 4.8 | 8.0 | 0.00 | 0.00 | 0.00 | 83 | 1010.9 |
| 20260507120919 | 6 | 106 | 6.4 | 8.0 | 0.00 | 0.00 | 0.00 | 84 | 1010.9 |
| 20260507120415 | 6 | 69 | 4.8 | 9.7 | 0.00 | 0.00 | 0.00 | 86 | 1011.2 |
| 20260507115911 | 6 | 76 | 6.4 | 6.4 | 0.00 | 0.00 | 0.00 | 88 | 1011.2 |
| 20260507115408 | 5 | 38 | 3.2 | 6.4 | 0.00 | 0.00 | 0.00 | 91 | 1011.1 |
| 20260507114903 | 5 | 80 | 3.2 | 6.4 | 0.00 | 0.00 | 0.00 | 93 | 1011.1 |
| 20260507114400 | 4 | 43 | 6.4 | 6.4 | 0.00 | 0.00 | 0.00 | 94 | 1010.9 |
| 20260507113857 | 4 | 112 | 3.2 | 6.4 | 0.00 | 0.00 | 0.00 | 95 | 1010.7 |
| 20260507113355 | 3 | 96 | 4.8 | 6.4 | 0.00 | 0.00 | 0.00 | 94 | 1010.9 |
| 20260507112852 | 4 | 89 | 4.8 | 6.4 | 0.00 | 0.00 | 0.00 | 93 | 1010.7 |
| 20260507112349 | 4 | 80 | 4.8 | 4.8 | 0.00 | 0.00 | 0.00 | 93 | 1011.1 |
| 20260507111847 | 4 | 70 | 4.8 | 4.8 | 0.00 | 0.00 | 0.00 | 95 | 1010.8 |
| 20260507111343 | 4 | 30 | 3.2 | 4.8 | 0.00 | 0.00 | 0.00 | 95 | 1010.6 |
| 20260507110839 | 3 | 80 | 3.2 | 6.4 | 0.00 | 0.00 | 0.00 | 98 | 1010.7 |
| 20260507110335 | 3 | 73 | 3.2 | 4.8 | 0.00 | 0.00 | 0.00 | 98 | 1010.7 |
| 20260507105833 | 2 | 76 | 0.0 | 1.6 | 0.00 | 0.00 | 0.00 | 98 | 1010.8 |
| 20260507105329 | 2 | 70 | 1.6 | 3.2 | 0.00 | 0.00 | 0.00 | 99 | 1010.7 |
| 20260507104826 | 2 | 78 | 3.2 | 3.2 | 0.00 | 0.00 | 0.00 | 99 | 1010.8 |
| 20260507104323 | 2 | 88 | 3.2 | 4.8 | 0.00 | 0.00 | 0.00 | 99 | 1010.6 |
| 20260507103819 | 1 | 92 | 3.2 | 4.8 | 0.00 | 0.00 | 0.00 | 99 | 1010.8 |
| 20260507103315 | 1 | 59 | 1.6 | 3.2 | 0.00 | 0.00 | 0.00 | 99 | 1010.5 |
| 20260507102812 | 1 | 56 | 1.6 | 3.2 | 0.00 | 0.00 | 0.00 | 99 | 1010.6 |
| 20260507102309 | 1 | 73 | 3.2 | 3.2 | 0.00 | 0.00 | 0.00 | 99 | 1010.5 |
| 20260507101805 | 1 | 89 | 3.2 | 4.8 | 0.00 | 0.00 | 0.00 | 99 | 1010.3 |
| 20260507101304 | 1 | 58 | 3.2 | 3.2 | 0.00 | 0.00 | 0.00 | 99 | 1010.2 |
| 20260507100802 | 1 | 9 | 0.0 | 3.2 | 0.00 | 0.00 | 0.00 | 99 | 1010.3 |
| 20260507100300 | 1 | 78 | 3.2 | 3.2 | 0.00 | 0.00 | 0.00 | 99 | 1010.1 |
| 20260507095758 | 1 | 46 | 3.2 | 3.2 | 0.00 | 0.00 | 0.00 | 99 | 1010.1 |
| 20260507095254 | 1 | 32 | 1.6 | 3.2 | 0.00 | 0.00 | 0.00 | 99 | 1010.0 |
| 20260507094751 | 1 | 341 | 1.6 | 3.2 | 0.00 | 0.00 | 0.00 | 99 | 1010.1 |
| 20260507094248 | 1 | 32 | 4.8 | 4.8 | 0.00 | 0.00 | 0.00 | 99 | 1010.2 |
| 20260507093745 | 1 | 71 | 3.2 | 3.2 | 0.00 | 0.00 | 0.00 | 99 | 1010.2 |
| 20260507093243 | 2 | 49 | 1.6 | 3.2 | 0.00 | 0.00 | 0.00 | 99 | 1010.2 |
| 20260507092741 | 2 | 50 | 1.6 | 3.2 | 0.00 | 0.00 | 0.00 | 99 | 1010.4 |
| 20260507092236 | 2 | 5 | 1.6 | 3.2 | 0.00 | 0.00 | 0.00 | 98 | 1010.3 |
| 20260507091733 | 2 | 44 | 3.2 | 4.8 | 0.00 | 0.00 | 0.00 | 98 | 1010.0 |
| 20260507091230 | 2 | 30 | 0.0 | 3.2 | 0.00 | 0.00 | 0.00 | 97 | 1010.2 |
| 20260507090725 | 3 | 341 | 0.0 | 3.2 | 0.00 | 0.00 | 0.00 | 96 | 1010.1 |
| 20260507090222 | 3 | 27 | 3.2 | 6.4 | 0.00 | 0.00 | 0.00 | 96 | 1010.1 |
| 20260507085719 | 3 | 10 | 3.2 | 4.8 | 0.00 | 0.00 | 0.00 | 97 | 1010.1 |
| 20260507085216 | 3 | 30 | 3.2 | 3.2 | 0.00 | 0.00 | 0.00 | 97 | 1010.3 |
| 20260507084713 | 3 | 24 | 4.8 | 4.8 | 0.00 | 0.00 | 0.00 | 97 | 1010.2 |
| 20260507084209 | 3 | 38 | 3.2 | 3.2 | 0.00 | 0.00 | 0.00 | 97 | 1010.1 |
| 20260507083707 | 3 | 33 | 3.2 | 3.2 | 0.00 | 0.00 | 0.00 | 96 | 1009.9 |
| 20260507083203 | 3 | 41 | 3.2 | 4.8 | 0.00 | 0.00 | 0.00 | 96 | 1010.1 |
| 20260507082659 | 3 | 1 | 3.2 | 4.8 | 0.00 | 0.00 | 0.00 | 95 | 1009.9 |
| 20260507082155 | 4 | 40 | 3.2 | 4.8 | 0.00 | 0.00 | 0.00 | 95 | 1009.8 |
| 20260507081652 | 4 | 63 | 3.2 | 4.8 | 0.00 | 0.00 | 0.00 | 93 | 1010.0 |
| 20260507081148 | 4 | 61 | 1.6 | 4.8 | 0.00 | 0.00 | 0.00 | 93 | 1010.2 |
| 20260507080645 | 4 | 92 | 3.2 | 3.2 | 0.00 | 0.00 | 0.00 | 93 | 1009.9 |
| 20260507080142 | 4 | 22 | 3.2 | 4.8 | 0.00 | 0.00 | 0.00 | 92 | 1010.0 |
| 20260507075642 | 5 | 46 | 4.8 | 6.4 | 0.00 | 0.00 | 0.00 | 92 | 1009.9 |
| 20260507075139 | 5 | 38 | 4.8 | 4.8 | 0.00 | 0.00 | 0.00 | 90 | 1010.2 |
| 20260507074636 | 5 | 22 | 4.8 | 6.4 | 0.00 | 0.00 | 0.00 | 90 | 1010.1 |
| 20260507074134 | 5 | 29 | 4.8 | 4.8 | 0.00 | 0.00 | 0.00 | 92 | 1010.0 |
| 20260507073630 | 4 | 19 | 4.8 | 4.8 | 0.00 | 0.00 | 0.00 | 93 | 1010.0 |
| 20260507073126 | 5 | 21 | 3.2 | 3.2 | 0.00 | 0.00 | 0.00 | 94 | 1010.0 |
| 20260507072624 | 5 | 35 | 3.2 | 4.8 | 0.00 | 0.00 | 0.00 | 93 | 1009.8 |
| 20260507072121 | 5 | 43 | 3.2 | 4.8 | 0.00 | 0.00 | 0.00 | 93 | 1010.0 |
| 20260507071619 | 5 | 52 | 3.2 | 4.8 | 0.00 | 0.00 | 0.00 | 93 | 1010.1 |
| 20260507071115 | 5 | 41 | 3.2 | 4.8 | 0.00 | 0.00 | 0.00 | 92 | 1009.9 |
| 20260507070612 | 5 | 26 | 4.8 | 9.7 | 0.00 | 0.00 | 0.00 | 91 | 1010.0 |
| 20260507070109 | 5 | 39 | 3.2 | 4.8 | 0.00 | 0.00 | 0.00 | 94 | 1010.2 |
| 20260507065605 | 5 | 352 | 3.2 | 3.2 | 0.00 | 0.00 | 0.00 | 92 | 1009.9 |
| 20260507065103 | 5 | 35 | 4.8 | 6.4 | 0.00 | 0.00 | 0.00 | 93 | 1010.0 |
| 20260507064600 | 5 | 26 | 4.8 | 6.4 | 0.00 | 0.00 | 0.00 | 93 | 1009.8 |
| 20260507064059 | 5 | 26 | 4.8 | 6.4 | 0.00 | 0.00 | 0.00 | 94 | 1010.1 |
| 20260507063556 | 5 | 14 | 4.8 | 6.4 | 0.00 | 0.00 | 0.00 | 93 | 1010.0 |
| 20260507063053 | 5 | 38 | 6.4 | 8.0 | 0.00 | 0.00 | 0.00 | 93 | 1009.9 |
| 20260507062549 | 5 | 31 | 6.4 | 6.4 | 0.00 | 0.00 | 0.00 | 93 | 1009.8 |
| 20260507062047 | 6 | 26 | 4.8 | 6.4 | 0.00 | 0.00 | 0.00 | 93 | 1009.6 |
| 20260507061544 | 6 | 46 | 4.8 | 6.4 | 0.00 | 0.00 | 0.00 | 94 | 1009.5 |
| 20260507061042 | 6 | 56 | 6.4 | 6.4 | 0.00 | 0.00 | 0.00 | 94 | 1009.8 |
| 20260507060540 | 6 | 39 | 4.8 | 8.0 | 0.00 | 0.00 | 0.00 | 94 | 1009.6 |
| 20260507060037 | 6 | 50 | 4.8 | 6.4 | 0.00 | 0.00 | 0.00 | 95 | 1009.6 |
| 20260507055531 | 6 | 21 | 8.0 | 8.0 | 0.00 | 0.00 | 0.00 | 96 | 1009.8 |
| 20260507055028 | 6 | 26 | 4.8 | 4.8 | 0.00 | 0.00 | 0.00 | 97 | 1009.8 |
| 20260507054524 | 6 | 69 | 3.2 | 6.4 | 0.00 | 0.00 | 0.00 | 97 | 1009.4 |
| 20260507054021 | 6 | 56 | 4.8 | 8.0 | 0.00 | 0.00 | 0.00 | 98 | 1009.4 |
| 20260507053519 | 6 | 24 | 3.2 | 6.4 | 0.00 | 0.00 | 0.00 | 99 | 1009.4 |
| 20260507053018 | 6 | 66 | 6.4 | 9.7 | 0.00 | 0.00 | 0.00 | 99 | 1009.5 |
| 20260507052515 | 6 | 44 | 3.2 | 4.8 | 0.00 | 0.00 | 0.00 | 99 | 1009.4 |
| 20260507052012 | 6 | 62 | 3.2 | 4.8 | 0.00 | 0.00 | 0.00 | 99 | 1009.8 |
| 20260507051509 | 6 | 73 | 3.2 | 6.4 | 0.00 | 0.00 | 0.00 | 99 | 1009.7 |
| 20260507051006 | 6 | 56 | 3.2 | 3.2 | 0.00 | 0.00 | 0.00 | 99 | 1009.6 |
| 20260507050502 | 6 | 79 | 6.4 | 6.4 | 0.00 | 0.00 | 0.00 | 99 | 1009.6 |
| 20260507045959 | 6 | 77 | 4.8 | 6.4 | 0.00 | 0.00 | 0.00 | 99 | 1009.7 |
| 20260507045455 | 6 | 72 | 3.2 | 6.4 | 0.00 | 0.00 | 0.00 | 99 | 1009.5 |
| 20260507044953 | 6 | 46 | 4.8 | 4.8 | 0.00 | 0.00 | 0.00 | 99 | 1009.6 |
| 20260507044450 | 6 | 41 | 3.2 | 4.8 | 0.00 | 0.00 | 0.00 | 99 | 1009.6 |
| 20260507043946 | 6 | 59 | 3.2 | 3.2 | 0.00 | 0.00 | 0.00 | 99 | 1009.5 |
| 20260507043442 | 6 | 89 | 1.6 | 3.2 | 0.00 | 0.00 | 0.00 | 99 | 1009.5 |
| 20260507042938 | 6 | 55 | 1.6 | 3.2 | 0.00 | 0.00 | 0.00 | 99 | 1009.6 |
| 20260507042435 | 6 | 52 | 3.2 | 3.2 | 0.00 | 0.00 | 0.00 | 99 | 1009.6 |
| 20260507041931 | 6 | 42 | 1.6 | 3.2 | 0.00 | 0.00 | 0.00 | 99 | 1009.4 |
| 20260507041428 | 6 | 42 | 3.2 | 3.2 | 0.00 | 0.00 | 0.00 | 99 | 1009.3 |
| 20260507040925 | 6 | 82 | 3.2 | 3.2 | 0.00 | 0.00 | 0.00 | 99 | 1009.2 |
| 20260507040421 | 6 | 80 | 3.2 | 4.8 | 0.00 | 0.00 | 0.00 | 99 | 1009.2 |
| 20260507035917 | 6 | 88 | 1.6 | 3.2 | 0.00 | 0.76 | 0.76 | 99 | 1009.3 |
| 20260507035414 | 6 | 40 | 0.0 | 3.2 | 0.00 | 0.76 | 0.76 | 99 | 1009.3 |
| 20260507034911 | 6 | 47 | 3.2 | 3.2 | 0.00 | 0.76 | 0.76 | 99 | 1009.1 |
| 20260507034408 | 6 | 88 | 1.6 | 3.2 | 0.00 | 0.76 | 0.76 | 99 | 1009.1 |
| 20260507033905 | 6 | 91 | 3.2 | 3.2 | 0.00 | 0.76 | 0.76 | 99 | 1009.2 |
| 20260507033403 | 6 | 73 | 1.6 | 3.2 | 0.00 | 0.76 | 0.76 | 99 | 1009.1 |
| 20260507032900 | 6 | 55 | 3.2 | 4.8 | 0.00 | 0.76 | 0.76 | 99 | 1008.7 |
| 20260507032357 | 6 | 64 | 3.2 | 3.2 | 0.00 | 0.76 | 0.76 | 99 | 1009.1 |
| 20260507031853 | 6 | 40 | 1.6 | 3.2 | 0.00 | 0.76 | 0.76 | 99 | 1009.3 |
| 20260507031350 | 6 | 47 | 3.2 | 3.2 | 0.00 | 0.76 | 0.76 | 99 | 1009.1 |
| 20260507030846 | 6 | 48 | 3.2 | 3.2 | 0.00 | 0.76 | 0.76 | 99 | 1009.5 |
| 20260507030344 | 6 | 38 | 3.2 | 4.8 | 0.00 | 0.76 | 0.76 | 99 | 1009.4 |
| 20260507025840 | 6 | 73 | 4.8 | 4.8 | 0.00 | 0.76 | 0.76 | 99 | 1009.1 |
| 20260507025338 | 6 | 52 | 3.2 | 3.2 | 0.00 | 0.76 | 0.76 | 99 | 1009.4 |
| 20260507024836 | 6 | 12 | 0.0 | 3.2 | 0.00 | 0.76 | 0.76 | 99 | 1009.6 |
| 20260507024333 | 6 | 6 | 0.0 | 1.6 | 0.00 | 0.76 | 0.76 | 99 | 1009.7 |
| 20260507023828 | 6 | 74 | 1.6 | 3.2 | 0.00 | 0.76 | 0.76 | 99 | 1009.6 |
| 20260507023324 | 6 | 53 | 3.2 | 4.8 | 0.00 | 0.76 | 0.76 | 99 | 1009.5 |
| 20260507022822 | 6 | 40 | 3.2 | 4.8 | 0.00 | 0.76 | 0.76 | 99 | 1009.3 |
| 20260507022318 | 6 | 52 | 4.8 | 4.8 | 0.00 | 0.76 | 0.76 | 99 | 1009.6 |
| 20260507021815 | 6 | 60 | 0.0 | 1.6 | 0.00 | 0.76 | 0.76 | 99 | 1009.9 |
| 20260507021311 | 6 | 352 | 0.0 | 0.0 | 0.00 | 0.76 | 0.76 | 99 | 1009.8 |
| 20260507020809 | 6 | 74 | 4.8 | 4.8 | 0.00 | 0.76 | 0.76 | 99 | 1009.7 |
| 20260507020305 | 6 | 52 | 1.6 | 3.2 | 0.00 | 0.76 | 0.76 | 99 | 1009.8 |
| 20260507015802 | 6 | 67 | 3.2 | 3.2 | 0.00 | 0.76 | 0.76 | 99 | 1009.7 |
| 20260507015300 | 6 | 78 | 3.2 | 3.2 | 0.00 | 0.76 | 0.76 | 99 | 1009.7 |
| 20260507014756 | 6 | 66 | 3.2 | 3.2 | 0.00 | 0.76 | 0.76 | 99 | 1009.8 |
| 20260507014253 | 6 | 42 | 1.6 | 3.2 | 0.00 | 0.76 | 0.76 | 99 | 1009.7 |
| 20260507013749 | 6 | 42 | 0.0 | 3.2 | 0.00 | 0.76 | 0.76 | 99 | 1009.7 |
| 20260507013247 | 6 | 52 | 3.2 | 3.2 | 0.00 | 0.76 | 0.76 | 99 | 1009.7 |
| 20260507012744 | 6 | 45 | 3.2 | 4.8 | 0.00 | 0.76 | 0.76 | 99 | 1009.7 |
| 20260507012239 | 6 | 52 | 3.2 | 3.2 | 0.00 | 0.76 | 0.76 | 99 | 1009.8 |
| 20260507011737 | 6 | 57 | 3.2 | 3.2 | 0.00 | 0.76 | 0.76 | 99 | 1009.8 |
| 20260507011233 | 6 | 84 | 3.2 | 4.8 | 0.00 | 0.76 | 0.76 | 99 | 1009.8 |
| 20260507010733 | 6 | 44 | 3.2 | 3.2 | 0.00 | 0.76 | 0.76 | 99 | 1009.7 |
| 20260507010229 | 6 | 49 | 1.6 | 3.2 | 0.00 | 0.76 | 0.76 | 99 | 1009.7 |
| 20260507005727 | 6 | 58 | 3.2 | 3.2 | 0.00 | 0.76 | 0.76 | 99 | 1009.5 |
| 20260507005223 | 6 | 71 | 3.2 | 3.2 | 0.00 | 0.76 | 0.76 | 99 | 1009.7 |
| 20260507004719 | 6 | 69 | 3.2 | 3.2 | 0.00 | 0.76 | 0.76 | 99 | 1009.4 |
| 20260507004218 | 6 | 76 | 3.2 | 3.2 | 0.00 | 0.76 | 0.76 | 99 | 1009.4 |
| 20260507003713 | 6 | 69 | 1.6 | 1.6 | 0.00 | 0.76 | 0.76 | 99 | 1009.2 |
| 20260507003214 | 6 | 65 | 3.2 | 4.8 | 0.00 | 0.76 | 0.76 | 99 | 1009.3 |
| 20260507002710 | 6 | 67 | 3.2 | 4.8 | 0.00 | 0.76 | 0.76 | 98 | 1009.1 |
| 20260507002206 | 6 | 70 | 3.2 | 3.2 | 0.00 | 0.76 | 0.76 | 98 | 1009.2 |
| 20260507001703 | 7 | 36 | 3.2 | 3.2 | 0.00 | 0.76 | 0.76 | 97 | 1009.1 |
| 20260507001200 | 7 | 84 | 3.2 | 4.8 | 0.00 | 0.76 | 0.76 | 96 | 1009.1 |
| 20260507000657 | 7 | 50 | 3.2 | 3.2 | 0.00 | 0.76 | 0.76 | 96 | 1009.0 |
| 20260507000152 | 7 | 81 | 3.2 | 3.2 | 0.00 | 0.76 | 0.76 | 96 | 1008.8 |
| 20260506235650 | 7 | 31 | 3.2 | 4.8 | 0.00 | 0.76 | 0.76 | 96 | 1009.1 |
| 20260506235145 | 7 | 346 | 3.2 | 4.8 | 0.00 | 0.76 | 0.76 | 96 | 1008.8 |
| 20260506234642 | 7 | 12 | 3.2 | 6.4 | 0.00 | 0.76 | 0.76 | 96 | 1008.7 |
| 20260506234139 | 7 | 327 | 3.2 | 4.8 | 0.00 | 0.76 | 0.76 | 98 | 1008.8 |
| 20260506233636 | 7 | 32 | 3.2 | 3.2 | 0.00 | 0.76 | 0.76 | 98 | 1008.9 |
| 20260506233133 | 7 | 11 | 0.0 | 3.2 | 0.00 | 0.76 | 0.76 | 99 | 1008.7 |
| 20260506232629 | 7 | 351 | 1.6 | 3.2 | 0.00 | 0.76 | 0.76 | 98 | 1008.7 |
| 20260506232125 | 7 | 2 | 0.0 | 3.2 | 0.00 | 0.76 | 0.76 | 98 | 1008.6 |
| 20260506231622 | 7 | 43 | 3.2 | 3.2 | 0.00 | 0.76 | 0.76 | 97 | 1008.7 |
| 20260506231121 | 7 | 16 | 3.2 | 4.8 | 0.00 | 0.76 | 0.76 | 97 | 1008.8 |
| 20260506230617 | 7 | 51 | 1.6 | 3.2 | 0.00 | 0.76 | 0.76 | 97 | 1008.7 |
| 20260506230114 | 7 | 80 | 1.6 | 3.2 | 0.00 | 0.76 | 0.76 | 98 | 1008.3 |
| 20260506225610 | 7 | 61 | 3.2 | 3.2 | 0.00 | 0.76 | 0.76 | 97 | 1008.5 |
| 20260506225107 | 7 | 74 | 4.8 | 4.8 | 0.00 | 0.76 | 0.76 | 97 | 1008.4 |
| 20260506224604 | 7 | 48 | 1.6 | 3.2 | 0.00 | 0.76 | 0.76 | 97 | 1008.5 |
| 20260506224100 | 7 | 70 | 1.6 | 3.2 | 0.00 | 0.76 | 0.76 | 98 | 1008.3 |
| 20260506223556 | 7 | 36 | 3.2 | 3.2 | 0.00 | 0.76 | 0.76 | 98 | 1008.3 |
| 20260506223053 | 7 | 40 | 1.6 | 4.8 | 0.00 | 0.76 | 0.76 | 98 | 1008.0 |
| 20260506222550 | 7 | 341 | 1.6 | 4.8 | 0.00 | 0.76 | 0.76 | 98 | 1008.0 |
| 20260506222046 | 7 | 112 | 6.4 | 6.4 | 0.00 | 0.76 | 0.76 | 98 | 1007.9 |
| 20260506221544 | 7 | 25 | 6.4 | 6.4 | 0.00 | 0.76 | 0.76 | 98 | 1008.3 |
| 20260506221042 | 7 | 37 | 4.8 | 6.4 | 0.00 | 0.76 | 0.76 | 98 | 1008.0 |
| 20260506220537 | 7 | 91 | 4.8 | 4.8 | 0.00 | 0.76 | 0.76 | 98 | 1008.2 |
| 20260506220033 | 7 | 20 | 4.8 | 6.4 | 0.00 | 0.76 | 0.76 | 98 | 1007.8 |
| 20260506215530 | 7 | 26 | 4.8 | 8.0 | 0.00 | 0.76 | 0.76 | 98 | 1007.8 |
| 20260506215026 | 7 | 9 | 4.8 | 6.4 | 0.00 | 0.76 | 0.76 | 98 | 1008.1 |
| 20260506214523 | 7 | 30 | 4.8 | 8.0 | 0.00 | 0.76 | 0.76 | 99 | 1008.0 |
| 20260506214020 | 7 | 40 | 4.8 | 4.8 | 0.00 | 0.76 | 0.76 | 99 | 1008.1 |
| 20260506213518 | 7 | 39 | 4.8 | 4.8 | 0.00 | 0.76 | 0.76 | 99 | 1007.7 |
| 20260506213015 | 7 | 69 | 4.8 | 6.4 | 0.00 | 0.76 | 0.76 | 98 | 1008.1 |
| 20260506212511 | 7 | 13 | 3.2 | 6.4 | 0.00 | 0.76 | 0.76 | 98 | 1008.0 |
| 20260506212007 | 7 | 38 | 6.4 | 9.7 | 0.00 | 0.76 | 0.76 | 98 | 1007.7 |
| 20260506211502 | 7 | 17 | 6.4 | 12.9 | 0.00 | 0.76 | 0.76 | 98 | 1007.4 |
| 20260506211000 | 7 | 28 | 8.0 | 8.0 | 0.00 | 0.76 | 0.76 | 99 | 1007.5 |
| 20260506210456 | 7 | 5 | 6.4 | 8.0 | 0.00 | 0.76 | 0.76 | 99 | 1007.5 |
| 20260506205953 | 8 | 60 | 3.2 | 11.3 | 0.00 | 0.76 | 0.76 | 99 | 1007.2 |
| 20260506205449 | 8 | 67 | 1.6 | 6.4 | 0.00 | 0.76 | 0.76 | 99 | 1006.9 |
| 20260506204945 | 8 | 35 | 4.8 | 8.0 | 0.00 | 0.76 | 0.76 | 99 | 1006.8 |
| 20260506204443 | 8 | 19 | 3.2 | 6.4 | 0.00 | 0.76 | 0.76 | 99 | 1006.9 |
| 20260506203941 | 8 | 41 | 0.0 | 3.2 | 0.00 | 0.76 | 0.76 | 99 | 1006.9 |
| 20260506203438 | 8 | 38 | 6.4 | 9.7 | 0.00 | 0.76 | 0.76 | 99 | 1006.6 |
| 20260506202935 | 8 | 106 | 6.4 | 6.4 | 0.00 | 0.76 | 0.76 | 99 | 1006.8 |
| 20260506202432 | 8 | 349 | 3.2 | 4.8 | 0.05 | 0.76 | 0.76 | 99 | 1006.7 |
| 20260506201928 | 8 | 42 | 3.2 | 4.8 | 0.05 | 0.76 | 0.76 | 99 | 1006.5 |
| 20260506201426 | 8 | 21 | 4.8 | 4.8 | 0.00 | 0.74 | 0.74 | 99 | 1006.2 |
| 20260506200922 | 8 | 31 | 4.8 | 6.4 | 0.00 | 0.74 | 0.74 | 99 | 1006.1 |
| 20260506200418 | 8 | 312 | 8.0 | 14.5 | 0.00 | 0.74 | 0.74 | 99 | 1006.2 |
| 20260506195915 | 8 | 33 | 4.8 | 6.4 | 0.00 | 0.74 | 0.74 | 99 | 1006.2 |
| 20260506195412 | 8 | 29 | 6.4 | 9.7 | 0.00 | 0.74 | 0.74 | 99 | 1006.1 |
| 20260506194909 | 8 | 47 | 3.2 | 4.8 | 0.00 | 0.74 | 0.74 | 99 | 1006.1 |
| 20260506194406 | 8 | 89 | 3.2 | 9.7 | 0.00 | 0.74 | 0.74 | 99 | 1006.3 |
| 20260506193903 | 8 | 7 | 4.8 | 6.4 | 0.00 | 0.74 | 0.74 | 99 | 1006.2 |
| 20260506193400 | 8 | 32 | 3.2 | 6.4 | 0.05 | 0.74 | 0.74 | 99 | 1006.2 |
| 20260506192856 | 8 | 32 | 3.2 | 6.4 | 0.13 | 0.74 | 0.74 | 99 | 1006.2 |
| 20260506192353 | 8 | 30 | 6.4 | 8.0 | 0.13 | 0.74 | 0.74 | 99 | 1006.2 |
| 20260506191850 | 8 | 6 | 4.8 | 9.7 | 0.18 | 0.74 | 0.74 | 99 | 1005.8 |
| 20260506191346 | 8 | 8 | 3.2 | 4.8 | 0.13 | 0.71 | 0.71 | 99 | 1005.8 |
| 20260506190843 | 9 | 294 | 4.8 | 6.4 | 0.00 | 0.71 | 0.71 | 99 | 1006.0 |
| 20260506190339 | 9 | 306 | 1.6 | 4.8 | 0.00 | 0.71 | 0.71 | 99 | 1005.9 |
| 20260506185837 | 9 | 346 | 3.2 | 3.2 | 0.00 | 0.71 | 0.71 | 99 | 1005.8 |
| 20260506185334 | 9 | 21 | 0.0 | 4.8 | 0.00 | 0.71 | 0.71 | 99 | 1005.5 |
| 20260506184831 | 9 | 67 | 4.8 | 6.4 | 0.00 | 0.71 | 0.71 | 99 | 1005.4 |
| 20260506184328 | 9 | 23 | 3.2 | 4.8 | 0.00 | 0.71 | 0.71 | 99 | 1005.4 |
| 20260506183825 | 9 | 71 | 4.8 | 4.8 | 0.00 | 0.71 | 0.71 | 99 | 1005.4 |
| 20260506183320 | 9 | 32 | 4.8 | 4.8 | 0.00 | 0.71 | 0.71 | 99 | 1005.4 |
| 20260506182818 | 9 | 84 | 3.2 | 6.4 | 0.00 | 0.71 | 0.71 | 99 | 1005.3 |
| 20260506182315 | 9 | 16 | 4.8 | 6.4 | 0.00 | 0.71 | 0.71 | 99 | 1005.4 |
| 20260506181813 | 9 | 48 | 4.8 | 8.0 | 0.00 | 0.71 | 0.71 | 99 | 1005.2 |
| 20260506181310 | 9 | 42 | 4.8 | 6.4 | 0.00 | 0.71 | 0.71 | 99 | 1004.9 |
| 20260506180807 | 9 | 346 | 3.2 | 6.4 | 0.00 | 0.71 | 0.71 | 99 | 1005.2 |
| 20260506180303 | 9 | 49 | 3.2 | 3.2 | 0.00 | 0.71 | 0.71 | 99 | 1005.2 |
| 20260506175759 | 9 | 29 | 4.8 | 4.8 | 0.00 | 0.71 | 0.71 | 99 | 1005.0 |
| 20260506175256 | 9 | 25 | 4.8 | 4.8 | 0.00 | 0.71 | 0.71 | 99 | 1005.0 |
| 20260506174754 | 9 | 43 | 3.2 | 6.4 | 0.00 | 0.71 | 0.71 | 99 | 1004.9 |
| 20260506174251 | 9 | 28 | 4.8 | 6.4 | 0.00 | 0.71 | 0.71 | 99 | 1004.8 |
| 20260506173749 | 9 | 64 | 3.2 | 6.4 | 0.00 | 0.71 | 0.71 | 99 | 1004.7 |
| 20260506173245 | 10 | 62 | 4.8 | 6.4 | 0.00 | 0.71 | 0.71 | 99 | 1004.5 |
| 20260506172742 | 10 | 125 | 3.2 | 4.8 | 0.00 | 0.71 | 0.71 | 99 | 1004.7 |
| 20260506172238 | 10 | 32 | 3.2 | 4.8 | 0.05 | 0.71 | 0.71 | 99 | 1004.6 |
| 20260506171736 | 10 | 97 | 1.6 | 4.8 | 0.05 | 0.71 | 0.71 | 99 | 1004.7 |
| 20260506171233 | 10 | 68 | 3.2 | 6.4 | 0.00 | 0.69 | 0.69 | 99 | 1004.7 |
| 20260506170731 | 10 | 319 | 3.2 | 6.4 | 0.00 | 0.69 | 0.69 | 99 | 1004.7 |
| 20260506170227 | 10 | 28 | 4.8 | 6.4 | 0.00 | 0.69 | 0.69 | 99 | 1004.5 |
| 20260506165726 | 11 | 1 | 4.8 | 8.0 | 0.00 | 0.69 | 0.69 | 99 | 1004.3 |
| 20260506165222 | 11 | 359 | 3.2 | 9.7 | 0.00 | 0.69 | 0.69 | 99 | 1004.4 |
| 20260506164720 | 11 | 10 | 6.4 | 9.7 | 0.00 | 0.69 | 0.69 | 99 | 1004.5 |
| 20260506164217 | 12 | 346 | 1.6 | 9.7 | 0.05 | 0.69 | 0.69 | 98 | 1004.4 |
| 20260506163713 | 13 | 327 | 1.6 | 8.0 | 0.05 | 0.69 | 0.69 | 99 | 1004.2 |
| 20260506163208 | 13 | 248 | 3.2 | 3.2 | 0.00 | 0.69 | 0.69 | 99 | 1004.1 |
| 20260506162704 | 13 | 88 | 3.2 | 3.2 | 0.00 | 0.69 | 0.69 | 99 | 1004.0 |
| 20260506162202 | 13 | 43 | 4.8 | 4.8 | 0.05 | 0.69 | 0.69 | 99 | 1004.1 |
| 20260506161659 | 13 | 130 | 1.6 | 6.4 | 0.05 | 0.69 | 0.69 | 99 | 1004.0 |
| 20260506161155 | 13 | 163 | 3.2 | 8.0 | 0.05 | 0.66 | 0.66 | 99 | 1004.0 |
| 20260506160654 | 13 | 10 | 4.8 | 6.4 | 0.05 | 0.66 | 0.66 | 99 | 1004.1 |
| 20260506160150 | 13 | 184 | 3.2 | 6.4 | 0.00 | 0.66 | 0.66 | 99 | 1004.1 |
| 20260506155649 | 13 | 85 | 1.6 | 3.2 | 0.00 | 0.66 | 0.66 | 99 | 1004.4 |
| 20260506155145 | 13 | 22 | 0.0 | 3.2 | 0.00 | 0.66 | 0.66 | 99 | 1004.2 |
| 20260506153247 | 13 | 102 | 3.2 | 8.0 | 0.00 | 0.66 | 0.66 | 99 | 1004.4 |
| 20260506152744 | 13 | 180 | 0.0 | 4.8 | 0.05 | 0.66 | 0.66 | 99 | 1004.2 |
| 20260506152242 | 13 | 65 | 1.6 | 4.8 | 0.05 | 0.66 | 0.66 | 99 | 1004.2 |
| 20260506151741 | 13 | 88 | 0.0 | 3.2 | 0.00 | 0.64 | 0.64 | 99 | 1004.1 |
| 20260506151237 | 13 | 96 | 1.6 | 6.4 | 0.05 | 0.64 | 0.64 | 99 | 1004.5 |
| 20260506150733 | 13 | 124 | 0.0 | 3.2 | 0.13 | 0.64 | 0.64 | 99 | 1004.3 |
| 20260506150231 | 13 | 256 | 0.0 | 3.2 | 0.05 | 0.64 | 0.64 | 99 | 1004.3 |
| 20260506145728 | 13 | 89 | 0.0 | 3.2 | 0.05 | 0.61 | 0.61 | 99 | 1004.1 |
| 20260506145224 | 13 | 95 | 3.2 | 4.8 | 0.13 | 0.61 | 0.61 | 99 | 1004.3 |
| 20260506144721 | 13 | 104 | 1.6 | 6.4 | 0.13 | 0.61 | 0.61 | 99 | 1004.5 |
| 20260506144218 | 13 | 223 | 3.2 | 4.8 | 0.13 | 0.61 | 0.61 | 99 | 1004.1 |
| 20260506143716 | 13 | 178 | 3.2 | 6.4 | 0.18 | 0.58 | 0.58 | 99 | 1004.0 |
| 20260506143213 | 13 | 190 | 1.6 | 4.8 | 0.13 | 0.58 | 0.58 | 99 | 1004.2 |
| 20260506142712 | 13 | 259 | 0.0 | 3.2 | 0.05 | 0.56 | 0.56 | 99 | 1004.2 |
| 20260506142209 | 13 | 45 | 1.6 | 3.2 | 0.13 | 0.56 | 0.56 | 99 | 1004.3 |
| 20260506141707 | 13 | 181 | 0.0 | 4.8 | 0.05 | 0.56 | 0.56 | 99 | 1004.3 |
| 20260506141205 | 13 | 101 | 1.6 | 1.6 | 0.05 | 0.53 | 0.53 | 99 | 1004.3 |
| 20260506140703 | 13 | 284 | 0.0 | 3.2 | 0.05 | 0.53 | 0.53 | 99 | 1004.4 |
| 20260506140159 | 12 | 53 | 3.2 | 3.2 | 0.13 | 0.53 | 0.53 | 99 | 1004.5 |
| 20260506135656 | 12 | 116 | 0.0 | 3.2 | 0.18 | 0.53 | 0.53 | 99 | 1004.5 |
| 20260506135152 | 12 | 221 | 0.0 | 3.2 | 0.05 | 0.51 | 0.51 | 99 | 1004.5 |
| 20260506134649 | 12 | 200 | 0.0 | 3.2 | 0.13 | 0.51 | 0.51 | 99 | 1004.5 |
| 20260506134145 | 11 | 276 | 3.2 | 3.2 | 0.13 | 0.48 | 0.48 | 99 | 1004.6 |
| 20260506133642 | 11 | 13 | 0.0 | 1.6 | 0.18 | 0.48 | 0.48 | 99 | 1004.4 |
| 20260506133139 | 11 | 323 | 1.6 | 1.6 | 0.18 | 0.46 | 0.46 | 99 | 1004.9 |